Home   Weather   Cuiabá   Past weeks

Flag for Brazil Past Weather in Cuiabá, Mato Grosso, Brazil — Yesterday and Last 2 Weeks

77 °F

Passing clouds.

Feels Like: 78 °F
Forecast: 73 / 94 °F
Wind: 5 mph from Northeast

Location: Cuiaba Aeroporto

Current Time: Oct 25, 2016 at 3:44:30 AM

Latest Report: Oct 25, 2016 at 3:00 AM

Visibility: N/A

Pressure: 29.83 "Hg

Humidity: 83%

Dew Point: 72 °F

Location of CuiabáLocation

Past Weather in Cuiabá — Graph


Cuiabá Temperature Yesterday

Maximum temperature yesterday: 90 °F (at 4:00 PM)
Minimum temperature yesterday: 72 °F (at 3:00 AM)
Average temperature yesterday: 80 °F

High & Low Weather Summary for the Past Weeks

High100 °F (Oct 10, 1:00 PM)94% (Oct 12, 3:00 AM)30.09 "Hg (Oct 12, 3:00 AM)
Low70 °F (Oct 15, 4:00 AM)25% (Oct 24, 4:00 AM)29.71 "Hg (Oct 16, 4:00 PM)
Average84 °F65%29.85 "Hg
* Reported Oct 10 1:00 AM — Oct 25 2:00 AM, Cuiabá, Weather by CustomWeather, © 2016

Note: Actual official high and low records may vary slightly from our data, if they occured in-between our weather recording intervals... More about our weather records


Cuiabá Weather History for the Previous 24 Hours

Scroll right to see more
Time TempWeatherWind HumidityBarometerVisibility
2:00 AM
Tue, Oct 25
79 °FPassing clouds.2 mph84%29.86 "HgN/A
1:00 AM81 °FPassing clouds.2 mph79%29.86 "HgN/A
12:00 AM81 °FPassing clouds.5 mph79%29.86 "HgN/A
11:00 PM
Mon, Oct 24
81 °FPassing clouds.5 mph84%29.83 "HgN/A
10:00 PM81 °FPassing clouds.2 mph79%29.80 "HgN/A
9:00 PM82 °FPassing clouds.No wind79%29.80 "HgN/A
8:00 PM82 °FPassing clouds.No wind70%29.80 "HgN/A
7:00 PM84 °FPassing clouds.2 mph62%29.80 "HgN/A
6:00 PM88 °FScattered clouds.6 mph59%29.77 "HgN/A
5:00 PM90 °FScattered clouds.10 mph49%29.77 "HgN/A
4:00 PM90 °FScattered clouds.5 mph52%29.80 "HgN/A
3:00 PM86 °FBroken clouds.2 mph59%29.83 "HgN/A
2:00 PM84 °FPartly sunny.3 mph66%29.89 "HgN/A
1:00 PM82 °FPartly sunny.3 mph70%29.92 "HgN/A
12:00 PM81 °FPartly sunny.3 mph79%29.98 "HgN/A
11:00 AM77 °FBroken clouds.2 mph83%29.98 "HgN/A
10:00 AM75 °FLight rain. Broken clouds.5 mph94%30.01 "HgN/A
9:00 AM75 °FLight rain. More clouds than sun.3 mph94%30.01 "Hg3 mi
8:00 AM75 °FRain. Low clouds.5 mph94%30.01 "Hg2 mi
7:00 AM73 °FLight rain. Broken clouds.No wind94%29.92 "Hg5 mi
6:00 AM73 °FThunderstorms. Partly cloudy.No wind94%N/A4 mi
5:00 AM73 °FThunderstorms. Mostly cloudy.3 mph94%N/A6 mi
4:00 AM73 °FThunderstorms. Mostly cloudy.10 mph25%29.89 "HgN/A
3:00 AM72 °FThunderstorms. Passing clouds.7 mph94%N/A2 mi
Weather by CustomWeather, © 2016

See weather overviewHow to use our weather pages